Blythe, CA

11:48 AM PDT on September 18, 2019 (GMT -0700)
Blythe

Weather History for KBLH - August, 2019

Change the Weather History Date:

Friday, August 23, 2019

  Actual Average Record
Temperature  
Mean Temperature 94 °F -  
Max Temperature 105 °F 105 °F 116 °F (2011)
Min Temperature 84 °F 80 °F 72 °F (1978)
Cooling Degree Days 30    
Growing Degree Days 44 (Base 50)    
Moisture  
Dew Point 62 °F    
Average Humidity 38    
Maximum Humidity 67    
Minimum Humidity 19    
Precipitation  
Precipitation 0.00 in - - ()
Sea Level Pressure  
Sea Level Pressure 29.74 in    
Wind  
Wind Speed 12 mph (South)    
Max Wind Speed 20 mph    
Max Gust Speed 21 mph    
Visibility 10 miles    
Events      
Averages and records for this station are not official NWS values.
T = Trace of Precipitation, MM = Missing Value Source: NWS Daily Summary

Daily Weather History Graph

Daily Weather History Graph

Search for Another Location

Airport or City:

Astronomy

Aug. 23, 2019 Rise Set
Actual Time 6:06 AM PDT 7:15 PM PDT
Civil Twilight 5:40 AM PDT 7:41 PM PDT
Nautical Twilight 5:09 AM PDT 8:12 PM PDT
Astronomical Twilight 4:38 AM PDT 8:44 PM PDT
Moon No Moon Rise 1:25 PM PDT (8/23)
Length of Visible Light 14h 01m
Length of Day
13h 09m
Waning Gibbous, 48% of the Moon is Illuminated
Aug 23
Waning Gibbous
Aug 30
New
Sep 5
First Quarter
Sep 13
Full
Sep 21
Last Quarter

Hourly Weather History & Observations

Time (PDT) Temp. Heat Index Dew Point Humidity Pressure Visibility Wind Dir Wind Speed Gust Speed Precip Events Conditions
12:52 AM 91.0 °F 89.2 °F 55.9 °F 30% 29.67 in 10.0 mi SW 9.2 mph - N/A   Clear
1:52 AM 90.0 °F - 51.1 °F 26% 29.69 in 10.0 mi South 10.4 mph - N/A   Clear
2:52 AM 87.1 °F 87.8 °F 63.0 °F 44% 29.71 in 8.0 mi South 13.8 mph - N/A   Clear
3:52 AM 87.1 °F 92.8 °F 71.1 °F 59% 29.71 in 9.0 mi SSW 19.6 mph - N/A   Clear
4:52 AM 86.0 °F 93.0 °F 73.0 °F 65% 29.73 in 9.0 mi South 15.0 mph - N/A   Clear
5:52 AM 84.9 °F 91.4 °F 73.0 °F 67% 29.74 in 10.0 mi South 15.0 mph - N/A   Clear
6:52 AM 84.9 °F 90.7 °F 72.0 °F 65% 29.75 in 10.0 mi South 10.4 mph - N/A   Clear
7:52 AM 87.1 °F 92.8 °F 71.1 °F 59% 29.77 in 10.0 mi South 9.2 mph - N/A   Clear
8:52 AM 89.1 °F 94.1 °F 70.0 °F 53% 29.79 in 10.0 mi SSW 10.4 mph - N/A   Clear
9:52 AM 91.9 °F 97.4 °F 70.0 °F 48% 29.80 in 10.0 mi South 8.1 mph - N/A   Clear
10:52 AM 96.1 °F 98.3 °F 64.0 °F 35% 29.80 in 10.0 mi South 11.5 mph 20.7 mph N/A   Clear
11:52 AM 97.0 °F 98.3 °F 63.0 °F 32% 29.78 in 10.0 mi SSW 8.1 mph - N/A   Clear
12:52 PM 100.9 °F 100.5 °F 57.9 °F 24% 29.76 in 10.0 mi South 11.5 mph - N/A   Clear
1:52 PM 102.9 °F 103.0 °F 57.9 °F 23% 29.73 in 10.0 mi SSW 13.8 mph 19.6 mph N/A   Clear
2:52 PM 102.9 °F 103.0 °F 59.0 °F 23% 29.71 in 10.0 mi South 13.8 mph 18.4 mph N/A   Clear
3:52 PM 105.1 °F 103.8 °F 55.0 °F 19% 29.68 in 10.0 mi South 13.8 mph - N/A   Clear
4:52 PM 104.0 °F 102.9 °F 55.9 °F 20% 29.67 in 10.0 mi South 13.8 mph - N/A   Clear
5:52 PM 102.9 °F 103.0 °F 57.9 °F 23% 29.67 in 10.0 mi South 15.0 mph - N/A   Clear
6:52 PM 99.0 °F 98.6 °F 59.0 °F 26% 29.68 in 10.0 mi South 16.1 mph - N/A   Clear
7:52 PM 96.1 °F 94.1 °F 55.0 °F 25% 29.70 in 10.0 mi South 17.3 mph - N/A   Clear
9:52 PM 91.0 °F 89.2 °F 55.9 °F 30% 29.77 in 10.0 mi South 12.7 mph - N/A   Clear
10:52 PM 89.1 °F 87.3 °F 55.9 °F 32% 29.79 in 10.0 mi SSW 12.7 mph - N/A   Clear
11:52 PM 87.1 °F 87.8 °F 63.0 °F 44% 29.82 in 10.0 mi South 12.7 mph - N/A   Clear